Regional Weather Roundup
Issued by NWS Kansas City/Pleasant Hill, MO

Home | Current Version | Previous Version | Graphics & Text | Print | Product List | Glossary Off
Versions: 1 2 3 4 5 6 7 8 9 10 11 12 13 14 15 16 17 18 19 20 21 22 23 24 25 26 27 28 29 30 31 32 33 34 35 36 37 38 39 40 41 42 43 44 45 46 47 48 49 50

000
ASUS43 KEAX 280011
RWREAX

WEATHER ROUNDUP FOR EASTERN KANSAS AND NORTHWEST MISSOURI
NATIONAL WEATHER SERVICE KANSAS CITY/PLEASANT HILL MO
700 PM CDT MON APR 27 2015

KSZ040-057-103>105-MOZ028-029-037-043-280100-
...KANSAS CITY METROPOLITAN AREA...

CITY           SKY/WX    TMP DP  RH WIND       PRES   REMARKS
K.C. INTL      PTSUNNY   63  36  36 NE9       30.05F
6HR MIN TEMP:  62; 6HR MAX TEMP:  66;

K.C. DOWNTOWN  PTSUNNY   64  36  35 NE8       30.04F
6HR MIN TEMP:  64; 6HR MAX TEMP:  68;

LEES SUMMIT    MOSUNNY   63  36  36 NE10      30.05F
6HR MIN TEMP:  61; 6HR MAX TEMP:  67;

OLATHE - IXD   MOSUNNY   64  35  34 NE13      30.05S
6HR MIN TEMP:  61; 6HR MAX TEMP:  67;

OLATHE - OJC   MOSUNNY   64  36  35 E13       30.04S
6HR MIN TEMP:  60; 6HR MAX TEMP:  67;

LAWRENCE       MOSUNNY   64  34  32 NE13G23   30.06S

$$

MOZ001>008-011>017-020>025-030>033-038>040-044>046-053-054-280100-
...NORTHERN AND CENTRAL MISSOURI...

CITY           SKY/WX    TMP DP  RH WIND       PRES   REMARKS
ST. JOSEPH     PTSUNNY   65  33  30 NE9       30.07S
6HR MIN TEMP:  64; 6HR MAX TEMP:  69;

MOSBY          MOCLDY    64  32  29 NE13      30.05F
WARRENSBURG    MOSUNNY   63  36  36 NE7       30.04F
WHITEMAN AFB   MOSUNNY   63  38  40 NE6       30.03F
6HR MIN TEMP:  63; 6HR MAX TEMP:  68;

CLINTON        SUNNY     64  39  39 NE10      30.03S
SEDALIA        PTSUNNY   63  38  39 E7        30.05F
6HR MIN TEMP:  63; 6HR MAX TEMP:  69;

WARSAW         NOT AVBL
MARSHALL       PTSUNNY   66  37  34 NE13      30.06S
CHILLICOTHE      N/A     66  37  34 NE8       30.08R
6HR MIN TEMP:  65; 6HR MAX TEMP:  69;

MOBERLY        MOSUNNY   63  36  36 NE10      30.07S
KIRKSVILLE     SUNNY     62  39  42 NE9       30.08S
6HR MIN TEMP:  62; 6HR MAX TEMP:  66;


$$

MOZ041-047>049-056>058-063>065-088>090-097-280100-
...EASTERN AND SOUTHERN MISSOURI...

CITY           SKY/WX    TMP DP  RH WIND       PRES   REMARKS
ST. LOUIS INTL MOCLDY    64  36  35 NE10      30.04S
6HR MIN TEMP:  63; 6HR MAX TEMP:  67;

SPIRIT OF STL  MOCLDY    61  36  39 NE9       30.03S
COLUMBIA       MOCLDY    64  36  35 NE9       30.04S
JEFFERSON CITY MOCLDY    65  33  30 NE10      30.03F
MEXICO         MOCLDY    66  43  42 NE10      30.06S
HANNIBAL       PTCLDY    64  28  25 NE5       30.07R
LEBANON        MOSUNNY   61  34  36 NE9       30.01S
OSAGE BEACH    SUNNY     64  34  32 NE13      30.01F
SPRINGFIELD    CLOUDY    62  33  33 NE12G22   29.98R
BRANSON        CLOUDY    63  32  31 E7        29.97R
NEVADA         PTSUNNY   61  37  41 NE13      30.02R
JOPLIN         CLOUDY    62  36  37 NE9       29.98R
WEST PLAINS    CLOUDY    61  32  33 E7        29.99R

$$

IAZ060-094-KSZ022-034>040-054-083-096-NEZ052-066-093-280100-
...KANSAS...SOUTHEAST NEBRASKA AND IOWA...

CITY           SKY/WX    TMP DP  RH WIND       PRES   REMARKS
TOPEKA         MOSUNNY   65  34  31 E15       30.06S
6HR MIN TEMP:  59; 6HR MAX TEMP:  67;

MANHATTAN      MOSUNNY   64  35  34 NE16      30.07R
EMPORIA        MOSUNNY   63  37  38 NE14      30.04R
CHANUTE        CLOUDY    62  37  39 E13       30.01R
WICHITA        CLOUDY    62  33  33 NE17G24   30.05R
OMAHA          PTSUNNY   69  30  23 E13G18    30.10S
LINCOLN        SUNNY     66  32  28 NE9       30.12S
FALLS CITY     MOSUNNY   65  32  29 E10       30.07S
LAMONI         SUNNY     64  36  35 NE9       30.08F
DES MOINES     MOSUNNY   67  30  25 NE10      30.10S

$$




USA.gov is the U.S. government's official web portal to all federal, state and local government web resources and services.